Wind_Speed
10 9 14 19 21 21 20 18 16 16 17 18 19 21 24 21 20 24 25 26 27 29 27 22 21 25 29 30 29 27 23 24 29 31 33 33 33 34 34 36 38 39 40 41 42 43 46 49 50 51 53 54 55 56 56 56 56 56 55 54 52 50 48 47 46 46 46 45 44 43 41 39 38 36 36 35 38 41 43 45 49 54 58 62 64 65
13 17 20 23 21 19 17 16 17 19 18 20 21 19 20 18 24 28 23 26 29 29 26 20 23 26 27 31 27 24 24 24 27 29 30 33 34 35 35 37 38 37 38 39 39 41 43 45 48 51 54 58 60 61 62 62 62 63 62 61 60 59 57 56 54 51 50 49 49 48 47 45 43 41 40 39 38 39 40 41 43 46 50 54 58 62
13 19 19 20 21 19 16 17 20 20 20 20 17 15 18 21 29 31 24 27 30 30 28 20 21 23 25 31 26 21 24 24 27 28 29 32 33 35 36 37 37 36 36 38 40 42 44 46 48 52 55 58 61 61 62 62 64 65 65 65 65 65 65 64 64 61 59 57 55 53 52 51 49 47 45 44 42 40 40 41 42 43 45 48 51 53
13 14 15 19 21 19 18 21 22 21 19 15 11 14 22 26 29 31 30 30 27 28 25 19 23 25 23 29 27 21 23 24 26 28 29 31 32 34 35 33 33 34 33 36 39 36 38 47 53 56 59 61 62 63 64 65 66 68 68 69 69 69 70 69 69 69 68 65 63 61 58 57 55 52 50 48 47 46 44 42 42 42 43 45 46 47
13 12 14 17 20 23 21 21 24 24 21 12 9 17 26 30 29 30 31 29 26 22 17 16 23 22 20 25 27 23 22 24 27 28 29 30 31 32 31 29 31 33 32 36 43 39 41 52 58 61 64 66 68 69 69 69 69 70 69 69 70 70 70 69 69 68 67 66 65 65 64 61 59 56 55 53 51 50 49 46 44 43 42 43 45 46
14 13 14 17 22 24 19 21 25 26 23 13 11 21 29 31 30 27 25 24 23 17 12 16 15 13 18 22 24 24 21 24 27 27 27 27 28 28 27 29 31 34 37 44 50 51 55 62 64 65 68 69 72 72 71 68 65 64 63 62 62 60 58 60 61 58 56 55 55 60 63 63 60 57 55 54 53 53 52 51 48 45 44 43 44 45
16 17 16 18 21 22 20 23 25 25 23 14 16 27 31 29 26 24 21 19 18 15 17 21 13 12 21 19 19 24 23 25 27 24 23 24 25 26 27 30 33 37 43 50 54 57 63 67 67 69 71 71 70 69 67 61 55 52 51 50 45 41 40 45 49 46 44 44 45 49 54 56 57 55 52 52 52 53 54 55 54 50 47 45 45 46
14 20 19 18 20 22 25 25 24 25 22 19 24 31 32 27 22 19 18 16 17 19 20 16 12 15 23 15 15 26 28 25 23 20 19 20 23 26 28 30 34 39 46 53 58 64 68 70 71 71 71 69 66 63 58 49 43 42 41 39 33 29 30 34 37 37 38 39 39 42 45 47 49 49 48 47 49 51 51 54 56 56 53 49 47 47
11 19 21 21 21 24 26 22 23 24 21 25 30 32 33 27 19 16 15 16 17 17 14 8 7 14 20 19 19 25 25 18 18 21 22 23 24 27 30 33 37 44 51 58 64 67 66 65 67 66 64 60 55 51 44 37 36 36 35 34 32 31 31 31 32 36 39 40 39 41 43 43 42 43 45 44 44 47 48 50 52 55 56 54 50 48
8 16 22 22 20 24 25 21 24 25 23 31 31 31 35 24 17 16 13 16 15 12 9 14 19 15 17 27 23 17 16 14 19 24 23 25 27 30 34 38 44 51 57 62 65 62 56 55 56 55 53 47 39 36 34 32 33 33 33 33 34 34 32 32 33 37 39 40 41 42 43 42 41 40 41 41 41 43 45 47 48 50 53 54 54 51
9 10 19 23 21 23 25 23 26 26 25 32 30 29 31 21 15 13 11 15 13 9 12 22 30 22 16 24 20 14 16 17 22 26 25 28 32 34 37 43 50 55 59 61 61 56 52 54 53 50 47 41 33 33 34 32 31 31 31 32 32 33 32 33 36 38 39 39 40 40 40 40 40 39 37 38 40 40 41 44 46 47 48 49 51 51
9 9 14 22 22 25 27 23 23 24 23 25 25 26 27 21 14 8 9 14 8 9 20 30 37 28 14 16 18 20 23 23 27 29 28 32 35 34 37 46 51 51 58 63 59 54 50 51 50 44 42 38 35 35 33 31 30 29 29 30 30 32 34 35 37 39 39 40 40 39 39 39 38 38 36 36 39 39 39 40 42 44 46 47 47 47
11 9 11 19 21 25 28 22 21 24 20 19 23 25 21 16 13 8 9 12 9 16 29 35 35 24 16 18 22 26 31 31 30 27 25 28 29 29 37 47 50 54 65 66 57 52 49 47 43 38 36 35 35 36 34 31 29 27 29 30 30 34 37 38 37 37 37 38 38 37 36 36 35 35 34 34 36 37 37 37 38 40 42 44 44 44
13 7 9 16 19 25 29 22 22 27 19 16 22 21 16 11 9 8 8 9 11 24 37 38 29 20 18 20 23 33 40 36 28 22 23 26 29 34 42 51 57 66 72 66 55 50 46 41 37 35 35 34 35 35 33 32 29 27 29 30 32 37 38 36 35 34 35 35 34 33 33 33 32 32 33 33 33 34 34 35 35 36 38 40 42 41
14 6 10 16 19 26 28 21 23 25 17 17 18 11 13 13 8 8 9 9 13 26 37 32 20 15 18 23 33 44 43 32 23 22 27 35 42 46 52 60 66 70 67 59 53 47 40 37 35 34 34 32 33 33 32 32 29 27 29 31 36 41 37 33 32 32 33 33 33 33 33 33 32 32 32 32 31 31 32 33 34 35 36 38 38 37
12 10 13 16 21 29 26 21 23 22 16 18 15 7 13 17 13 14 15 19 23 24 24 21 18 20 25 33 41 39 31 25 26 30 37 46 51 51 57 63 63 60 57 53 50 43 37 36 35 34 34 33 34 32 30 29 29 30 32 34 41 44 35 30 31 32 33 33 33 33 33 32 32 31 31 32 32 31 30 32 33 34 36 37 36 34
10 14 14 15 23 28 24 21 21 19 20 21 13 9 17 16 10 13 18 24 24 16 15 20 23 27 31 31 27 23 26 33 36 38 42 46 48 49 52 52 50 54 54 50 47 42 37 36 35 35 37 37 35 32 31 30 31 33 35 38 45 44 35 30 30 31 34 33 32 32 31 30 29 31 33 33 33 32 31 32 32 33 35 35 34 33
14 18 16 14 23 27 24 22 18 17 24 21 11 13 19 11 5 10 15 18 16 10 14 22 28 32 28 18 17 27 36 38 38 42 48 52 51 48 45 42 46 54 53 47 45 43 39 37 36 38 39 37 34 33 35 35 33 34 39 44 45 40 36 35 35 34 35 32 30 30 29 28 28 30 32 33 32 32 32 32 32 33 35 34 34 33
17 17 11 13 25 26 19 19 18 18 23 21 13 14 17 10 6 14 15 12 12 10 11 20 29 30 22 17 26 37 36 35 43 52 56 56 50 45 44 46 49 53 51 49 48 45 39 37 39 42 40 37 35 35 36 36 36 40 45 45 40 35 37 40 42 41 36 29 28 29 28 28 28 27 29 31 31 31 32 31 31 34 35 34 33 33
17 11 8 15 25 20 14 18 19 18 21 21 16 13 15 10 6 13 14 12 15 14 11 18 22 18 17 24 32 33 35 43 54 59 58 53 48 44 47 52 54 53 51 50 50 46 42 40 41 41 39 37 36 38 39 40 41 43 44 41 35 33 36 39 41 43 38 31 29 29 28 28 28 26 27 30 31 29 30 31 32 33 34 35 34 33
18 8 11 21 24 16 15 21 21 19 19 19 14 11 13 11 8 13 14 13 16 13 11 13 15 20 24 25 29 35 45 54 57 57 55 50 48 48 50 55 56 53 50 49 48 45 43 43 41 39 39 38 40 43 42 42 43 44 43 40 37 36 38 39 40 43 42 38 34 30 28 28 28 28 28 30 31 30 30 30 31 31 31 32 32 31
18 11 15 24 23 18 21 24 21 20 25 22 13 10 11 11 13 13 10 16 20 16 18 15 14 32 36 25 31 45 52 57 56 52 50 48 50 53 54 55 53 52 51 50 48 43 43 44 42 41 42 42 45 46 42 43 46 47 44 42 41 41 41 42 42 43 43 41 36 30 27 28 28 28 29 30 31 31 31 29 28 28 27 28 28 28
17 15 18 20 19 19 22 23 18 20 30 29 18 17 21 20 20 15 10 23 29 22 28 24 18 38 44 33 40 53 53 55 52 45 46 50 55 57 56 53 53 54 51 46 44 42 42 44 42 43 46 46 47 44 41 45 49 48 46 43 42 41 40 40 38 37 36 35 32 28 26 27 27 27 28 30 31 30 30 28 27 27 26 25 25 26
14 14 19 20 20 20 20 21 20 23 31 29 21 25 29 26 26 22 21 30 28 21 27 22 16 36 48 42 48 56 54 53 47 42 47 55 59 57 54 54 55 54 48 41 41 42 43 44 43 46 49 48 48 47 47 49 49 48 46 43 41 39 39 39 38 38 38 36 35 32 29 29 28 27 27 29 31 31 30 29 29 29 28 28 27 27
13 11 18 19 18 20 20 20 23 29 31 25 20 25 30 29 26 28 31 29 21 20 27 20 18 40 53 50 53 57 54 50 43 41 49 57 60 57 55 57 55 49 44 40 40 42 45 47 49 51 53 49 47 51 53 51 50 50 47 43 43 43 42 42 42 42 42 40 39 38 35 33 32 31 30 31 35 37 35 34 33 31 30 30 30 29
15 11 14 14 11 11 14 15 21 28 29 24 21 23 30 31 26 29 33 26 20 27 31 23 27 50 60 55 56 58 52 47 44 48 55 57 55 55 56 57 51 45 44 44 43 44 46 52 55 55 55 54 50 49 51 51 52 53 51 48 48 47 44 43 43 43 42 40 40 41 41 39 37 36 36 37 40 42 41 39 37 35 33 32 32 31
19 9 8 17 18 14 16 20 23 25 24 24 24 23 26 29 28 30 29 24 26 33 33 31 37 55 64 61 59 57 49 46 51 57 58 55 54 55 54 51 49 48 49 48 45 45 50 56 57 54 54 57 55 51 50 52 54 55 54 52 50 49 47 44 43 43 42 40 38 38 39 40 40 41 42 42 43 44 44 42 40 38 36 34 33 32
21 8 10 25 26 18 19 24 23 20 21 25 25 21 23 27 27 26 23 22 28 30 34 46 54 58 66 66 58 50 46 50 57 58 56 57 58 58 53 50 52 54 52 49 47 49 55 59 58 55 56 58 58 55 53 54 55 55 54 53 51 51 51 49 46 44 42 40 37 35 33 34 37 40 43 44 44 44 43 43 42 41 40 38 35 34
20 11 18 31 29 22 21 26 25 21 20 22 22 19 23 27 23 20 21 22 25 28 38 53 60 60 65 63 51 46 51 56 57 56 57 60 61 59 56 54 56 56 53 51 52 55 59 60 58 57 58 60 59 57 57 57 56 54 53 53 52 51 52 52 51 47 44 43 40 36 33 31 31 34 37 40 43 44 44 44 45 46 45 43 39 36
20 19 26 32 32 25 18 25 30 23 18 19 19 17 23 28 21 19 30 34 32 37 43 49 57 59 54 48 45 48 55 56 55 57 61 63 63 60 57 56 57 58 55 54 58 61 61 60 59 57 58 60 59 59 61 61 58 55 52 51 51 50 50 51 51 48 47 46 43 40 36 34 32 31 32 35 38 42 44 45 46 48 47 45 42 38
23 27 30 32 35 27 21 31 33 18 15 18 15 14 24 32 24 22 37 46 44 48 51 51 56 53 43 44 51 53 53 54 57 63 66 65 63 59 57 59 61 60 58 59 62 63 62 60 59 58 58 59 60 62 65 64 62 60 55 50 50 50 48 49 50 49 48 47 44 42 39 36 35 33 30 30 32 34 37 39 41 42 42 42 40 36
27 30 32 32 29 23 27 40 34 14 12 12 9 16 27 34 32 31 38 43 43 48 54 53 51 48 49 55 58 54 52 55 60 65 67 64 61 59 59 63 66 66 65 64 63 62 61 60 60 60 59 60 62 65 67 68 66 63 59 53 50 48 45 45 47 48 47 45 42 41 39 37 35 33 30 27 27 27 28 29 31 33 33 32 31 28
28 30 32 29 22 21 31 38 29 12 8 7 12 24 29 30 37 42 43 43 43 45 47 46 45 50 57 61 59 56 56 57 60 65 67 64 60 60 63 64 67 69 68 66 64 61 59 57 58 61 62 63 65 67 70 71 69 67 61 53 49 48 44 42 43 44 44 42 39 39 38 36 34 32 28 25 24 23 22 23 23 23 22 21 21 21
27 29 30 25 21 26 36 38 25 8 5 13 21 25 25 28 39 50 50 48 48 44 38 38 44 52 56 57 58 61 60 59 62 65 65 61 55 57 64 66 66 67 66 65 63 61 59 58 59 61 63 64 67 69 72 72 70 68 62 52 46 44 42 39 39 39 40 38 36 36 36 33 30 27 24 23 21 20 18 18 16 15 15 16 16 18
28 30 28 23 19 25 34 33 17 7 11 19 21 20 24 33 45 53 51 48 47 41 35 39 48 52 52 55 60 64 64 65 67 65 63 59 53 55 64 67 66 65 65 64 62 60 60 60 61 62 64 66 69 71 72 71 68 63 58 49 43 39 37 36 35 36 36 34 33 34 32 29 25 21 19 19 18 16 14 12 10 10 11 12 13 14
28 28 26 21 16 20 26 20 10 14 20 17 15 18 29 41 48 49 49 47 40 33 34 44 51 50 51 59 63 64 66 69 69 66 63 59 57 59 63 65 65 64 62 61 61 59 59 60 62 64 66 68 72 73 70 66 62 57 52 47 42 38 35 34 33 34 33 30 30 31 27 22 19 15 15 16 14 10 8 7 6 7 10 11 11 13
25 25 25 20 13 14 18 16 17 21 15 8 13 23 33 46 48 43 46 46 33 28 38 50 52 51 54 61 63 63 68 72 73 72 69 65 64 63 61 61 61 60 60 59 59 58 59 62 63 66 68 70 72 72 67 61 57 53 49 46 44 40 37 34 33 32 29 27 28 25 21 16 13 12 12 12 8 4 3 4 6 8 10 11 11 13
25 26 25 19 13 14 16 16 17 13 7 9 21 30 39 50 48 41 42 38 28 35 49 53 51 53 56 60 63 64 68 71 76 78 74 71 70 67 65 63 61 59 59 58 58 60 63 66 68 70 74 73 69 65 61 56 52 49 48 47 44 42 38 35 32 29 25 24 23 19 15 11 9 9 8 4 3 4 3 4 6 8 10 11 12 15
28 28 24 18 14 14 14 13 10 8 11 19 29 39 48 52 48 39 32 28 34 50 55 50 48 52 56 60 63 64 63 64 72 79 77 75 75 72 70 69 66 64 61 56 56 60 66 72 75 74 73 69 64 59 54 50 49 49 49 47 45 41 37 34 30 25 20 19 16 13 9 5 4 5 1 4 6 4 2 6 8 8 9 10 12 15
28 28 24 18 15 15 15 15 14 14 18 24 33 45 53 53 45 32 20 26 46 56 51 46 48 51 55 58 59 61 61 60 68 76 76 76 77 74 70 68 66 66 62 57 58 63 68 73 76 73 67 60 56 52 48 47 48 49 48 46 42 38 35 31 25 19 15 13 11 7 3 1 2 2 3 6 5 2 4 7 7 7 8 9 10 12
26 26 22 18 19 17 13 17 23 24 25 31 39 48 52 50 40 26 20 35 52 54 47 46 49 52 54 53 54 60 62 61 66 70 72 75 77 76 74 71 69 68 64 61 62 64 63 63 65 64 59 53 50 48 47 47 47 47 45 42 37 33 30 25 18 12 9 8 5 2 1 2 3 2 4 4 3 4 5 7 7 6 7 8 10 13
23 24 21 19 23 23 18 21 25 24 28 39 46 49 47 41 32 27 33 44 49 49 47 48 50 53 54 53 57 62 65 65 66 68 71 73 75 76 76 74 72 71 68 64 63 62 60 59 58 57 54 49 47 47 46 46 45 42 40 36 32 28 23 16 9 5 4 3 2 3 4 4 4 3 3 4 5 5 5 5 6 7 8 10 13 15
21 22 19 17 23 26 22 17 14 18 31 43 47 46 43 33 26 32 41 46 47 46 46 48 52 55 56 60 65 66 67 69 69 69 70 72 73 76 77 75 74 72 71 69 66 64 64 62 58 55 51 47 44 44 43 41 40 37 34 31 26 21 14 7 2 1 2 4 5 5 6 6 5 4 4 5 5 4 4 5 5 8 10 13 15 17
22 23 21 21 23 22 19 16 18 27 38 41 40 42 40 29 25 33 42 46 47 46 45 49 55 58 60 65 68 69 70 71 70 71 72 72 75 77 78 79 77 75 73 71 68 66 65 62 57 53 49 45 41 40 38 37 36 34 30 26 22 15 7 1 2 3 5 6 7 7 8 8 7 6 5 6 5 4 5 6 7 9 11 12 15 17
23 25 25 27 28 26 26 28 31 35 39 39 41 43 37 30 30 36 43 46 46 46 47 51 57 60 62 65 68 71 72 71 71 72 73 73 74 75 76 78 78 77 76 73 69 68 65 61 55 51 47 43 39 36 35 33 32 30 26 22 17 9 2 3 5 6 7 8 8 8 8 9 9 8 6 5 4 5 7 8 9 10 11 12 15 17
26 28 28 31 34 34 34 33 33 36 41 43 45 42 37 35 38 42 45 47 48 48 50 53 57 61 63 65 68 71 72 72 74 75 73 73 75 76 78 79 78 78 78 75 71 68 65 59 53 47 43 40 37 34 33 30 28 26 23 19 13 6 4 5 6 7 8 8 8 8 8 8 8 7 6 5 5 6 8 9 10 11 11 13 15 17
28 30 32 34 36 37 39 40 41 45 47 47 47 46 44 45 46 46 46 49 50 51 52 54 57 61 63 64 67 71 72 74 76 77 75 73 74 75 77 78 78 78 78 76 72 69 64 58 51 45 42 39 36 34 31 28 26 24 21 16 11 6 5 6 7 7 8 8 8 8 8 8 7 6 5 4 5 6 8 9 10 11 12 13 16 18
31 33 36 37 38 39 42 44 45 48 49 48 49 50 51 51 51 50 49 50 52 54 55 56 58 61 63 65 67 70 73 74 76 79 78 75 73 73 73 76 78 79 78 76 73 68 64 58 50 44 41 38 36 33 29 26 25 22 19 15 11 6 5 5 6 7 7 7 7 7 7 7 6 6 4 4 5 6 6 7 7 8 11 15 18 19
32 34 36 38 41 43 43 45 48 51 53 52 50 51 52 52 52 52 51 51 52 55 58 59 61 62 64 66 67 70 73 75 77 80 79 76 74 73 72 73 75 76 77 77 73 68 63 57 49 43 39 36 34 32 28 25 23 21 18 15 11 7 5 4 5 7 7 6 6 6 6 6 6 5 3 4 6 5 5 6 6 7 12 15 17 18
33 35 36 38 42 44 44 45 48 52 54 53 52 53 53 51 51 53 54 53 54 57 59 62 63 64 64 65 67 70 73 75 78 80 80 77 74 71 70 71 72 73 74 75 73 68 63 56 49 41 37 34 32 30 27 25 23 21 18 15 11 7 5 3 3 6 6 5 5 5 4 3 3 2 2 5 4 2 5 7 8 11 14 14 14 17
35 36 38 39 41 43 44 45 46 48 51 53 53 53 53 52 52 54 54 55 56 58 60 62 63 65 65 66 67 69 72 76 79 81 81 77 72 68 67 67 70 72 73 73 72 68 62 56 49 42 36 34 31 29 27 25 22 20 17 14 12 9 6 3 2 5 5 4 4 4 4 2 1 1 3 4 4 5 7 5 4 8 13 14 14 16
Wind_Direction
19 24 30 28 19 16 15 14 12 3 354 352 355 354 350 342 325 326 326 324 328 322 321 324 307 299 301 305 309 307 304 307 307 302 299 298 295 295 298 300 300 298 297 297 299 301 302 302 302 302 303 302 302 301 300 299 297 296 295 294 293 291 288 286 284 283 283 282 281 280 279 278 277 277 277 274 269 263 258 254 250 248 247 246 245 244
23 34 35 26 17 13 9 8 5 359 358 359 359 350 343 333 321 328 329 323 326 320 320 323 304 296 294 301 308 302 294 296 301 300 297 298 294 290 291 293 294 293 293 295 296 297 298 297 297 297 298 299 299 299 300 300 299 297 296 296 296 294 293 292 289 287 286 285 284 283 282 281 279 278 278 278 277 273 268 264 259 253 250 249 247 245
24 33 31 18 12 9 7 9 4 1 4 357 352 340 331 329 327 333 332 321 320 315 318 319 300 293 287 295 306 299 289 290 294 295 293 295 291 286 286 288 290 292 293 293 293 294 295 294 295 297 297 297 297 297 298 300 300 299 298 298 298 297 297 295 293 292 290 288 287 286 285 284 282 281 280 279 279 278 275 271 267 263 258 253 251 249
33 31 24 15 9 8 13 11 3 6 6 346 334 334 330 333 331 328 327 321 313 308 311 312 306 302 285 288 302 299 290 294 296 296 293 291 286 283 285 287 291 296 298 298 301 304 303 304 307 308 305 303 301 300 300 301 302 302 302 302 301 301 300 299 298 297 295 293 290 288 287 286 284 282 281 280 279 280 278 275 272 270 267 262 258 255
34 29 18 13 10 13 15 3 359 4 2 339 319 335 334 335 331 320 319 319 315 310 306 308 309 303 290 294 302 298 296 301 299 294 288 285 282 281 285 291 297 305 312 316 318 320 319 321 322 318 315 312 310 310 309 308 307 307 306 306 305 304 303 302 302 301 299 297 294 291 288 287 285 283 281 280 278 278 278 277 276 273 271 269 266 262
32 28 16 14 14 15 11 358 359 0 357 346 320 335 338 334 332 326 321 318 317 315 305 306 309 302 304 304 298 298 301 298 293 287 280 278 280 284 291 297 303 312 318 322 322 321 322 325 325 321 318 317 316 316 315 313 312 311 310 309 308 306 303 302 303 301 299 298 295 294 292 289 286 284 281 280 278 276 275 274 275 274 273 271 270 267
28 27 19 18 16 12 8 2 1 357 354 349 331 338 342 337 333 329 321 314 307 307 305 297 286 296 306 298 290 301 304 294 288 281 276 279 281 287 298 304 312 320 323 324 324 323 324 326 324 321 319 318 317 316 314 313 313 312 312 312 309 305 302 300 300 299 298 297 295 294 294 293 290 286 281 279 277 275 273 272 271 270 272 271 270 269
18 21 19 19 15 8 9 4 358 356 352 343 340 345 348 343 335 326 315 306 298 300 306 290 258 286 305 302 297 302 299 288 282 277 277 285 286 294 307 315 321 324 323 322 323 323 324 324 322 320 318 316 315 313 312 312 311 310 310 309 304 299 298 299 300 300 300 301 298 297 297 298 296 291 285 279 274 272 271 270 269 267 267 268 268 268
7 14 15 14 12 9 8 3 357 359 352 344 346 349 351 345 334 327 305 297 303 300 309 325 296 292 301 306 303 299 294 274 267 273 276 281 288 302 313 315 317 319 319 322 324 326 325 323 322 321 319 317 315 312 310 309 310 309 307 303 297 294 295 298 300 302 303 303 301 300 300 299 297 295 292 286 277 272 269 266 266 266 265 264 264 265
353 7 11 8 8 6 1 358 1 2 352 351 354 346 346 342 323 316 288 287 302 289 299 341 337 318 301 303 299 288 279 253 253 269 277 284 292 304 308 309 317 322 326 328 329 327 324 322 321 321 321 319 316 314 312 310 309 308 305 301 297 295 295 297 299 302 303 301 301 301 300 299 296 294 293 291 284 278 273 268 263 262 262 262 262 262
336 342 2 4 3 359 355 357 2 0 354 357 355 338 339 341 318 300 282 297 300 289 315 332 331 324 303 301 297 279 273 262 264 274 280 287 294 302 307 316 326 330 331 332 329 326 323 321 320 319 319 318 313 313 314 313 310 306 303 299 296 295 295 296 298 301 300 299 302 302 300 298 297 294 292 290 289 284 279 274 269 265 262 260 260 261
341 307 343 357 354 354 357 359 359 358 354 353 350 339 340 345 335 307 310 325 315 305 322 326 326 322 302 303 303 293 292 288 287 286 289 298 306 313 319 326 331 333 333 332 330 326 323 322 321 319 319 317 313 313 315 315 310 305 301 297 295 294 295 298 298 298 297 298 301 302 300 298 296 296 293 288 288 287 283 280 275 271 267 264 260 259
347 298 321 349 349 351 358 360 359 359 354 347 351 353 352 349 347 341 334 339 323 305 314 322 324 315 297 305 305 303 308 306 300 298 306 317 320 323 326 330 331 331 330 330 330 326 323 321 318 317 317 315 312 313 314 313 307 302 298 295 298 300 300 300 299 297 297 298 300 300 299 298 296 298 296 291 287 286 286 285 280 276 272 269 265 261
347 297 315 347 348 351 357 0 359 358 358 354 355 1 6 358 341 333 326 326 314 305 311 317 316 305 302 309 311 312 312 307 304 318 335 337 332 328 326 325 324 324 325 327 328 325 322 320 317 317 317 314 312 312 313 311 305 301 298 295 302 308 305 300 298 297 297 297 298 298 297 295 294 294 293 292 290 288 287 286 283 279 275 271 269 266
350 316 317 339 348 352 355 360 359 0 4 354 350 1 11 360 324 308 314 313 308 304 310 314 309 310 318 314 312 310 307 301 306 330 335 323 317 317 316 316 318 323 327 328 327 323 320 319 318 319 318 317 315 314 312 309 304 305 301 297 307 313 307 301 300 298 296 295 294 294 294 292 291 289 288 287 288 288 286 285 284 282 278 274 271 268
346 325 319 333 348 351 352 355 358 5 8 352 348 348 347 342 308 288 295 301 303 300 307 313 304 309 316 311 307 305 303 303 308 319 317 311 311 313 314 317 323 328 329 327 324 322 320 320 321 321 320 320 319 315 312 309 306 307 301 296 308 314 308 300 300 302 301 298 294 293 293 292 290 287 285 283 283 284 283 283 284 283 281 279 275 271
335 332 339 345 348 348 351 357 1 6 1 353 354 340 334 334 306 297 303 306 307 298 302 312 306 309 316 312 307 309 310 304 306 318 322 320 323 323 320 322 326 329 328 326 324 322 320 321 322 323 324 323 320 315 313 309 307 306 298 298 308 312 306 299 298 304 305 300 294 292 291 292 290 287 286 284 282 281 281 282 282 283 283 283 279 275
329 334 349 354 346 346 352 1 3 357 355 357 350 335 343 348 324 329 321 310 314 303 298 311 311 310 314 312 313 316 313 307 312 324 326 325 325 323 319 319 323 326 325 324 324 322 322 323 323 325 326 322 316 314 312 308 305 301 297 303 310 309 304 300 299 304 306 300 294 292 290 289 287 287 289 287 282 280 280 280 282 284 285 285 283 278
335 333 339 348 347 348 353 1 359 344 348 358 350 341 356 3 331 336 328 305 314 309 299 313 311 306 309 312 314 315 315 318 323 325 324 324 325 323 321 321 322 323 324 324 324 324 324 323 323 324 323 319 317 318 315 307 303 302 302 308 311 306 304 303 302 306 308 303 296 291 288 286 283 285 290 289 285 281 279 278 280 283 285 286 285 281
345 331 305 336 350 353 346 351 353 341 342 351 350 348 355 355 329 328 319 298 308 310 305 315 310 302 312 316 315 320 325 326 325 324 324 325 325 323 323 323 323 323 324 324 324 324 324 324 324 323 320 320 320 319 314 307 304 305 309 314 312 306 305 305 305 308 310 309 304 295 288 284 281 281 283 284 284 282 280 280 280 281 283 285 285 281
352 329 292 327 348 354 338 339 343 344 345 343 342 345 346 349 341 326 315 304 311 311 306 315 302 293 308 320 320 322 324 324 324 324 324 326 324 323 323 323 324 323 323 324 323 323 323 324 325 325 323 320 317 317 315 310 307 307 310 312 309 304 303 304 305 307 308 310 309 301 290 285 281 279 278 277 278 278 279 281 282 282 282 283 284 282
352 336 314 327 342 342 333 336 340 344 348 344 340 351 348 350 347 337 324 317 318 306 296 304 293 292 303 320 320 318 321 323 324 324 324 326 324 322 323 323 323 323 324 325 324 323 322 323 324 325 324 318 316 320 321 316 313 312 311 310 307 305 304 304 306 308 309 310 309 302 289 283 280 279 279 276 274 274 275 277 279 279 280 281 281 281
350 343 332 326 330 330 328 338 345 344 348 349 346 343 339 339 340 337 316 314 316 305 297 298 286 293 305 319 319 320 324 324 324 324 324 326 325 323 324 324 324 325 324 324 323 323 322 322 323 322 321 318 319 322 322 317 315 315 315 313 310 308 305 305 307 307 308 305 300 292 282 278 275 273 277 276 272 271 271 271 272 272 273 274 275 275
0 352 340 328 329 336 334 342 349 344 345 346 337 328 326 327 329 325 315 311 308 299 303 304 281 292 308 321 321 323 327 325 324 324 325 326 326 325 325 324 325 325 323 322 322 322 323 323 321 320 321 322 323 324 324 322 320 320 319 316 312 309 304 301 300 300 299 295 289 282 275 271 267 263 267 270 266 263 263 265 266 266 267 267 268 269
7 358 350 341 337 344 345 347 346 338 335 332 322 316 315 318 325 324 321 316 302 296 307 306 282 293 309 321 322 323 326 326 325 324 325 326 326 325 325 325 326 325 323 322 320 320 323 323 322 323 325 328 326 324 323 323 322 321 320 316 311 309 305 300 298 297 297 293 287 282 276 270 265 259 257 259 259 257 258 261 262 262 263 263 264 265
360 359 4 358 341 334 330 329 330 325 320 317 316 313 309 313 323 326 322 316 307 309 307 291 283 298 310 319 323 325 326 326 327 327 325 326 325 325 326 326 326 326 326 325 321 320 321 323 324 326 327 328 328 323 319 320 323 322 319 316 313 311 308 304 303 303 302 299 294 289 284 278 271 263 257 257 257 257 258 260 261 261 262 263 264 264
357 353 348 348 340 319 307 314 320 316 309 307 312 316 314 313 319 326 323 313 313 314 304 295 300 307 313 319 323 327 327 326 328 329 327 326 325 326 327 326 328 330 328 325 321 320 320 322 325 327 325 325 325 323 319 320 323 322 319 318 315 313 311 308 308 309 308 307 304 299 293 285 276 269 263 262 261 261 261 262 262 262 263 265 266 267
355 339 316 338 341 331 324 330 327 311 302 304 307 316 323 318 317 319 314 309 318 317 306 310 316 315 315 320 324 327 328 328 327 328 328 325 324 327 328 328 330 331 327 324 323 322 320 322 326 327 325 323 322 321 321 322 323 322 320 319 316 315 314 312 311 312 313 314 314 310 304 294 284 276 270 266 265 264 264 263 264 265 267 268 268 269
353 342 329 337 341 341 342 344 336 312 301 304 302 307 322 325 320 313 306 308 316 310 303 312 317 314 314 320 325 327 328 328 326 326 326 326 326 329 330 330 330 329 327 325 324 323 323 324 325 325 323 321 320 320 322 323 323 322 319 318 316 314 314 313 312 314 317 320 320 316 312 308 299 288 279 273 268 265 264 264 265 267 269 270 269 270
351 343 335 336 340 346 347 345 341 324 306 312 308 306 323 328 323 314 317 320 318 310 307 311 314 313 313 319 323 325 326 326 326 326 327 329 329 331 332 332 331 328 326 324 322 323 325 324 324 323 320 318 319 320 321 322 322 320 317 315 314 311 311 311 311 313 316 318 319 317 314 313 309 301 291 281 273 268 266 266 267 268 270 271 270 270
344 341 338 338 341 349 348 345 347 334 302 309 303 301 324 328 323 321 324 325 323 318 317 317 315 315 318 321 321 323 326 326 327 329 331 331 331 332 333 332 331 329 326 323 323 324 326 325 323 321 318 318 319 321 321 322 321 320 317 315 313 310 309 308 307 309 311 314 316 317 315 314 311 307 299 290 282 275 271 268 267 268 269 270 270 269
338 339 342 343 340 342 345 347 352 344 301 303 302 313 326 325 320 323 326 324 323 320 320 321 320 321 324 324 322 324 327 327 328 329 331 332 333 334 334 330 329 328 327 326 327 326 324 323 321 318 318 319 320 320 320 320 320 319 317 316 314 310 307 306 304 304 307 311 315 316 315 314 311 307 303 296 289 281 275 270 267 265 266 267 266 263
338 340 345 347 334 331 343 348 350 343 312 321 326 322 321 319 318 323 324 323 324 323 321 321 321 322 323 324 324 325 327 327 327 328 330 333 335 334 332 328 326 326 328 329 328 326 324 321 318 316 318 319 319 318 317 317 318 317 316 317 315 310 307 306 302 301 304 308 313 314 313 311 309 305 302 297 290 283 277 272 267 263 261 258 254 249
338 341 348 350 335 332 345 347 346 352 343 324 317 314 314 318 322 325 325 325 326 326 321 319 320 322 324 325 325 325 326 327 328 329 332 336 334 328 326 326 326 327 329 329 326 324 322 319 317 316 317 317 316 315 314 314 315 315 315 317 314 308 307 307 303 302 304 308 312 313 312 309 306 301 297 292 287 283 279 273 266 257 248 242 240 242
338 344 351 351 336 331 342 348 350 1 334 312 301 306 314 320 325 325 322 323 326 325 322 322 323 324 326 327 327 327 327 329 330 333 336 336 331 326 326 329 330 330 329 327 325 323 320 316 315 315 315 314 312 311 311 313 314 314 315 317 314 308 306 306 304 304 306 309 313 314 311 307 303 298 292 286 283 281 279 276 269 253 238 233 238 248
341 349 353 349 337 333 341 345 332 323 322 304 292 314 322 324 329 328 321 321 325 325 323 325 326 327 328 329 331 330 328 329 332 336 339 338 333 332 332 332 332 330 326 324 323 321 316 314 313 313 312 311 310 311 313 315 315 315 316 317 315 311 307 305 304 305 308 312 315 315 310 305 301 297 289 284 281 277 275 270 261 243 231 233 247 261
341 348 353 352 344 340 334 318 308 317 320 300 306 324 328 328 331 329 318 317 323 325 325 328 329 329 329 332 334 332 330 332 334 338 342 342 341 340 338 335 333 330 325 323 321 317 314 313 312 311 310 309 309 310 313 315 314 314 315 315 314 312 308 305 305 308 312 316 317 314 308 302 300 297 292 288 277 251 229 233 236 236 237 246 259 267
341 349 358 356 342 338 328 314 316 323 322 317 315 318 324 327 329 326 315 311 321 331 331 332 331 328 330 335 338 337 335 335 335 337 341 343 343 343 342 339 336 331 327 324 321 317 314 312 310 309 310 311 311 311 312 313 313 312 313 313 311 309 306 304 306 310 315 318 315 310 304 300 302 306 301 281 182 152 178 244 256 255 254 261 268 271
342 349 358 356 340 336 330 319 314 302 306 315 314 317 324 327 328 327 316 310 327 336 336 334 329 328 334 340 341 341 338 336 335 336 340 343 345 346 344 341 337 334 331 325 319 315 312 310 310 311 312 313 313 314 314 313 311 311 313 313 310 307 302 301 306 312 318 317 311 305 300 297 314 325 310 150 143 149 236 276 276 270 266 269 276 279
339 346 354 353 342 337 330 319 309 303 311 315 315 321 327 328 330 334 323 319 332 338 339 332 328 333 340 340 340 340 339 337 337 338 341 344 346 346 345 340 337 335 332 325 319 315 311 309 310 313 316 318 317 316 316 313 311 312 314 314 311 305 300 300 306 313 317 313 305 301 295 290 23 35 132 141 144 185 264 281 277 272 278 283 287 288
336 341 348 346 339 338 331 318 314 317 323 324 322 325 328 330 336 342 326 322 332 339 338 332 333 341 343 338 337 339 339 340 341 341 343 346 346 346 345 343 340 338 334 328 324 321 317 314 314 317 322 324 322 320 319 317 316 317 317 316 312 305 300 303 308 313 313 304 292 268 189 140 98 103 150 162 196 234 263 278 278 284 298 301 300 299
334 338 341 337 335 336 330 318 314 318 326 327 325 327 331 335 338 331 320 323 333 339 336 334 338 343 342 339 340 341 340 341 343 344 346 347 347 346 346 345 342 340 338 334 333 332 330 328 325 324 326 328 326 325 324 322 322 322 321 319 314 307 304 305 307 310 300 264 200 159 160 146 110 108 162 202 236 247 260 278 292 309 315 312 310 308
333 337 335 329 331 334 329 317 307 312 324 326 325 327 332 333 324 319 322 329 336 338 337 337 340 343 343 344 345 344 342 343 344 345 345 346 347 348 347 346 345 343 341 340 340 339 336 333 331 329 330 331 329 328 328 328 328 328 325 321 316 311 308 303 294 277 210 182 160 150 157 149 123 125 185 233 256 262 262 272 298 317 317 316 315 313
336 338 332 326 329 327 317 315 322 323 323 323 322 324 326 322 316 321 328 332 336 339 338 338 341 344 344 345 345 345 345 345 345 345 345 345 347 348 347 347 346 345 344 343 342 341 340 337 335 335 335 336 335 333 333 333 331 331 329 326 322 319 313 279 149 158 168 163 154 155 163 165 161 171 208 244 263 272 273 281 302 315 316 319 321 320
335 338 332 328 329 324 320 325 330 325 321 322 323 325 325 322 321 325 329 331 335 339 339 339 341 343 344 345 345 345 345 345 345 345 345 345 346 346 346 347 347 345 345 346 344 343 343 341 339 339 339 340 340 338 337 337 335 336 338 337 334 336 5 123 136 154 161 157 154 159 170 186 195 203 216 233 249 273 290 302 312 313 315 322 326 324
336 337 334 333 333 331 330 332 330 324 322 326 329 330 328 325 324 325 328 331 333 336 339 339 340 342 344 345 345 344 345 346 346 345 344 344 345 345 345 345 347 346 346 346 346 346 345 344 342 342 343 343 343 343 343 345 346 347 349 350 351 6 69 112 136 155 159 156 156 160 171 193 209 215 219 228 255 287 301 307 308 309 315 325 329 327
340 339 337 337 335 332 333 336 334 330 332 334 334 334 331 328 327 326 327 330 332 335 337 337 339 341 343 343 343 343 345 346 346 344 343 344 345 345 343 343 346 347 346 346 347 347 347 346 345 345 347 348 349 350 351 354 356 358 359 1 6 26 70 108 139 155 156 154 157 165 179 197 210 217 220 231 261 284 297 307 313 318 326 334 335 331
341 340 339 338 335 332 335 336 333 332 337 340 337 334 333 331 329 328 328 329 331 333 334 335 337 340 341 341 342 342 342 344 345 344 343 343 343 343 342 343 345 346 345 346 347 347 348 348 348 348 350 352 353 356 358 1 5 9 10 10 14 33 66 105 145 161 161 157 157 168 187 200 207 211 220 252 276 284 297 315 326 335 342 344 339 335
342 339 338 335 334 334 336 335 332 333 339 343 339 334 334 333 329 328 328 330 330 331 332 334 336 338 339 340 341 340 340 343 344 343 342 342 342 342 341 342 344 345 345 344 346 348 349 349 350 351 353 355 356 360 4 8 13 15 16 16 20 31 54 97 152 168 166 162 167 180 192 197 197 199 226 286 291 298 331 341 347 356 353 348 343 337
341 339 336 333 331 333 334 334 333 332 335 339 337 334 334 333 329 328 330 330 329 329 330 332 335 337 339 339 339 339 339 340 342 342 341 341 341 340 340 341 343 345 344 344 345 347 349 350 351 353 355 358 0 4 8 13 17 18 19 20 21 24 42 78 163 177 169 162 165 169 171 169 173 189 289 304 298 351 12 355 350 357 357 354 349 338
340 339 337 333 329 329 331 333 333 331 332 335 335 334 334 334 332 331 331 330 329 330 331 332 334 336 337 338 339 339 339 339 340 341 341 340 339 340 340 341 342 344 345 343 344 346 348 349 349 352 356 360 3 6 9 13 17 19 20 21 19 19 28 39 188 185 168 152 139 132 133 132 133 279 313 324 340 11 13 2 355 359 357 355 351 341
Height
3112 3110 3108 3108 3108 3107 3105 3104 3104 3102 3101 3099 3096 3094 3092 3090 3088 3086 3083 3080 3077 3073 3070 3070 3068 3065 3061 3058 3057 3056 3055 3053 3051 3048 3046 3044 3042 3040 3038 3035 3033 3030 3027 3025 3023 3020 3018 3016 3013 3010 3008 3005 3003 3000 2997 2995 2993 2991 2989 2988 2986 2984 2983 2982 2981 2979 2978 2977 2975 2974 2973 2972 2971 2969 2967 2966 2964 2963 2964 2964 2964 2964 2964 2965 2966 2967
3111 3109 3109 3110 3109 3108 3106 3105 3103 3101 3099 3097 3095 3093 3092 3090 3087 3083 3080 3077 3074 3071 3068 3067 3064 3061 3058 3055 3054 3053 3051 3050 3048 3045 3043 3041 3038 3036 3033 3031 3028 3026 3024 3021 3019 3017 3015 3012 3010 3008 3005 3003 2999 2997 2993 2990 2987 2985 2983 2981 2979 2977 2975 2974 2973 2973 2972 2970 2969 2968 2967 2966 2965 2964 2963 2961 2960 2958 2957 2957 2957 2957 2957 2958 2958 2959
3112 3110 3110 3110 3109 3108 3106 3104 3103 3100 3098 3096 3095 3094 3092 3090 3084 3079 3077 3075 3072 3069 3065 3064 3061 3058 3055 3051 3050 3050 3048 3046 3044 3042 3040 3037 3035 3032 3029 3026 3024 3022 3019 3017 3014 3012 3009 3007 3006 3004 3001 2999 2996 2993 2990 2986 2983 2980 2977 2975 2973 2971 2968 2966 2964 2963 2963 2962 2962 2961 2960 2959 2958 2957 2957 2956 2955 2954 2952 2951 2951 2951 2951 2951 2951 2951
3113 3112 3112 3111 3110 3108 3105 3104 3102 3100 3098 3097 3096 3094 3091 3088 3083 3077 3074 3073 3071 3067 3062 3060 3057 3054 3052 3047 3046 3046 3044 3042 3041 3038 3036 3034 3031 3028 3025 3022 3020 3018 3015 3011 3010 3007 3004 3001 2999 2996 2993 2992 2989 2987 2984 2981 2978 2975 2972 2969 2967 2964 2962 2959 2957 2954 2953 2952 2952 2952 2952 2952 2951 2950 2950 2950 2949 2948 2946 2946 2945 2945 2945 2945 2945 2945
3115 3114 3113 3112 3109 3107 3105 3104 3102 3099 3098 3096 3095 3093 3089 3086 3083 3078 3072 3069 3067 3064 3061 3059 3055 3050 3048 3045 3042 3042 3041 3039 3037 3035 3032 3029 3027 3024 3021 3019 3016 3014 3012 3008 3006 3004 3000 2997 2993 2988 2984 2982 2980 2978 2975 2973 2970 2967 2965 2963 2960 2958 2955 2952 2950 2948 2945 2943 2941 2940 2941 2943 2943 2943 2942 2943 2943 2942 2940 2939 2939 2939 2939 2939 2939 2939
3116 3115 3113 3111 3109 3107 3106 3104 3101 3098 3097 3096 3094 3092 3089 3084 3080 3076 3072 3068 3064 3061 3059 3058 3054 3048 3044 3042 3039 3037 3037 3036 3033 3031 3029 3026 3023 3020 3018 3016 3013 3011 3009 3005 3002 2998 2995 2992 2988 2983 2978 2975 2972 2970 2968 2966 2963 2960 2958 2955 2953 2951 2949 2946 2944 2942 2939 2937 2934 2931 2930 2931 2933 2934 2934 2934 2935 2935 2935 2934 2933 2933 2933 2933 2933 2933
3116 3114 3113 3111 3109 3108 3106 3103 3101 3098 3096 3096 3094 3091 3087 3082 3077 3073 3071 3069 3064 3060 3058 3056 3054 3047 3041 3039 3036 3035 3034 3032 3029 3028 3026 3023 3020 3018 3016 3013 3010 3007 3004 3001 2997 2994 2990 2986 2982 2977 2973 2970 2967 2964 2962 2961 2959 2955 2952 2949 2947 2944 2942 2940 2938 2936 2934 2932 2929 2926 2924 2922 2922 2923 2925 2925 2925 2926 2927 2927 2927 2926 2926 2926 2926 2926
3116 3114 3112 3111 3109 3108 3105 3102 3101 3099 3096 3095 3092 3088 3083 3079 3075 3071 3069 3067 3063 3059 3056 3053 3054 3048 3040 3038 3036 3034 3032 3029 3027 3026 3023 3021 3018 3016 3014 3010 3008 3004 3001 2997 2993 2989 2986 2981 2977 2973 2969 2966 2963 2960 2957 2955 2953 2951 2948 2945 2943 2940 2937 2935 2933 2931 2929 2927 2924 2922 2920 2918 2915 2914 2915 2916 2916 2916 2918 2919 2919 2919 2920 2920 2920 2920
3116 3114 3112 3110 3109 3107 3105 3103 3101 3098 3096 3093 3089 3084 3080 3076 3073 3069 3067 3065 3061 3059 3055 3052 3053 3048 3039 3037 3035 3032 3030 3028 3025 3023 3020 3018 3015 3013 3011 3008 3005 3001 2997 2993 2989 2985 2981 2977 2972 2968 2964 2961 2957 2954 2952 2950 2948 2946 2943 2941 2939 2937 2934 2931 2929 2926 2924 2922 2920 2918 2916 2914 2912 2909 2908 2908 2907 2907 2908 2909 2911 2911 2911 2912 2913 2914
3115 3113 3112 3110 3109 3107 3106 3104 3101 3097 3095 3091 3085 3081 3077 3073 3070 3067 3065 3063 3060 3058 3054 3052 3053 3047 3038 3035 3033 3029 3028 3027 3023 3020 3018 3015 3013 3011 3008 3004 3001 2997 2993 2989 2985 2982 2978 2974 2969 2964 2960 2957 2953 2950 2948 2946 2943 2941 2938 2936 2934 2932 2930 2928 2925 2922 2920 2918 2916 2914 2911 2909 2908 2905 2903 2901 2901 2900 2899 2900 2901 2902 2903 2904 2905 2906
3115 3113 3112 3110 3109 3107 3105 3102 3099 3096 3093 3088 3084 3080 3076 3072 3069 3066 3064 3063 3060 3055 3053 3051 3052 3048 3038 3032 3031 3028 3026 3025 3021 3018 3016 3013 3010 3008 3004 3001 2998 2993 2990 2986 2982 2978 2974 2970 2965 2961 2957 2953 2949 2946 2944 2942 2939 2937 2934 2932 2929 2928 2926 2924 2921 2918 2915 2913 2911 2909 2907 2905 2903 2901 2899 2896 2895 2894 2893 2892 2893 2893 2895 2896 2897 2898
3115 3113 3112 3110 3109 3107 3104 3101 3098 3095 3091 3088 3086 3081 3075 3070 3067 3065 3063 3062 3059 3053 3050 3049 3048 3046 3038 3029 3028 3027 3024 3023 3020 3016 3013 3009 3007 3004 3001 2998 2995 2991 2986 2981 2977 2973 2970 2966 2961 2957 2952 2948 2945 2942 2940 2937 2935 2932 2930 2927 2925 2923 2922 2920 2917 2914 2911 2908 2906 2904 2902 2900 2898 2896 2894 2892 2890 2888 2887 2886 2886 2886 2886 2887 2889 2890
3115 3113 3112 3110 3108 3106 3103 3100 3097 3095 3092 3090 3087 3082 3076 3070 3066 3065 3062 3061 3059 3052 3048 3049 3046 3042 3036 3029 3026 3025 3023 3020 3017 3013 3010 3007 3004 3001 2998 2995 2992 2987 2981 2976 2974 2970 2966 2962 2957 2952 2948 2944 2941 2938 2935 2933 2930 2928 2926 2923 2921 2919 2917 2915 2912 2909 2906 2904 2902 2900 2898 2896 2894 2892 2890 2887 2885 2883 2882 2881 2880 2880 2880 2880 2882 2883
3115 3113 3111 3110 3107 3105 3102 3100 3097 3094 3092 3090 3088 3084 3081 3078 3076 3073 3067 3063 3060 3050 3045 3048 3046 3039 3035 3030 3026 3024 3022 3017 3013 3011 3009 3006 3003 3000 2996 2992 2987 2981 2975 2972 2970 2966 2962 2958 2952 2948 2944 2940 2937 2934 2931 2928 2926 2924 2921 2919 2917 2914 2912 2909 2907 2904 2902 2900 2898 2896 2893 2891 2890 2887 2885 2883 2881 2879 2878 2877 2876 2875 2875 2875 2875 2877
3116 3113 3112 3110 3108 3105 3102 3101 3099 3095 3092 3091 3089 3088 3087 3087 3086 3080 3071 3068 3062 3051 3044 3046 3043 3038 3034 3030 3026 3024 3020 3015 3012 3010 3008 3004 3000 2996 2992 2987 2981 2976 2973 2970 2966 2962 2957 2952 2948 2944 2940 2937 2934 2931 2928 2924 2921 2919 2917 2914 2912 2909 2906 2904 2902 2900 2897 2895 2893 2891 2889 2887 2885 2883 2881 2879 2877 2876 2874 2872 2871 2870 2870 2869 2870 2871
3118 3116 3113 3110 3108 3105 3102 3101 3098 3095 3094 3092 3090 3089 3088 3088 3087 3081 3074 3071 3066 3054 3045 3043 3040 3037 3036 3031 3025 3022 3019 3016 3012 3008 3003 2999 2996 2992 2987 2983 2978 2974 2972 2968 2963 2957 2952 2948 2944 2941 2937 2934 2931 2927 2924 2921 2918 2916 2913 2910 2907 2904 2901 2899 2897 2894 2892 2890 2888 2886 2884 2883 2881 2879 2877 2875 2874 2872 2871 2869 2867 2866 2865 2865 2865 2865
3118 3115 3112 3109 3107 3104 3102 3099 3096 3095 3094 3092 3090 3090 3088 3086 3084 3080 3074 3069 3065 3055 3045 3042 3038 3035 3034 3029 3022 3020 3018 3015 3011 3005 3000 2998 2994 2990 2985 2981 2977 2973 2969 2964 2959 2953 2948 2944 2941 2937 2933 2930 2926 2923 2920 2918 2915 2912 2908 2905 2902 2899 2896 2894 2892 2890 2887 2885 2882 2880 2879 2878 2876 2874 2872 2871 2869 2868 2867 2865 2863 2862 2861 2860 2860 2860
3117 3112 3109 3108 3106 3102 3100 3097 3095 3094 3093 3091 3090 3088 3086 3084 3082 3082 3075 3066 3062 3055 3045 3042 3037 3032 3031 3026 3020 3020 3017 3012 3010 3004 2999 2995 2992 2987 2983 2979 2975 2970 2966 2960 2955 2950 2945 2941 2937 2933 2930 2926 2923 2919 2916 2913 2911 2907 2904 2901 2898 2894 2891 2888 2886 2884 2882 2879 2877 2875 2874 2873 2872 2870 2868 2866 2865 2864 2862 2861 2860 2858 2857 2856 2855 2855
3116 3111 3107 3107 3105 3101 3098 3096 3095 3093 3092 3091 3089 3086 3085 3085 3084 3083 3079 3070 3065 3055 3043 3041 3037 3029 3029 3025 3019 3018 3015 3010 3006 3000 2995 2991 2987 2984 2979 2975 2970 2965 2961 2955 2950 2946 2941 2938 2934 2930 2926 2922 2919 2916 2912 2909 2906 2903 2900 2897 2894 2889 2886 2884 2880 2878 2876 2874 2872 2870 2869 2868 2867 2866 2864 2862 2861 2859 2858 2857 2856 2854 2853 2852 2851 2850
3115 3112 3108 3106 3105 3102 3099 3098 3097 3094 3091 3089 3088 3087 3086 3087 3085 3083 3081 3075 3069 3058 3044 3039 3032 3024 3026 3025 3019 3016 3012 3007 3002 2995 2991 2988 2984 2980 2975 2970 2966 2961 2956 2952 2946 2942 2937 2934 2930 2926 2923 2919 2915 2912 2908 2904 2901 2898 2895 2892 2889 2885 2882 2879 2876 2873 2871 2869 2868 2865 2864 2863 2862 2861 2860 2858 2856 2855 2853 2852 2851 2850 2849 2847 2846 2845
3115 3113 3110 3105 3103 3102 3100 3099 3097 3094 3092 3089 3088 3088 3085 3085 3084 3082 3080 3077 3074 3064 3051 3043 3029 3017 3022 3025 3018 3015 3011 3005 3001 2993 2989 2985 2980 2977 2972 2967 2962 2956 2952 2948 2943 2938 2933 2929 2926 2922 2919 2915 2911 2908 2904 2900 2896 2892 2890 2887 2884 2880 2877 2874 2871 2868 2866 2864 2862 2861 2859 2858 2856 2855 2854 2853 2851 2850 2848 2847 2846 2845 2843 2842 2841 2841
3114 3113 3110 3104 3102 3102 3100 3098 3096 3093 3091 3088 3087 3086 3084 3084 3082 3080 3076 3073 3074 3069 3057 3050 3032 3012 3017 3025 3018 3014 3009 3003 2999 2992 2986 2982 2977 2973 2968 2963 2958 2953 2948 2943 2939 2934 2930 2925 2922 2917 2914 2911 2906 2903 2899 2895 2890 2887 2885 2882 2879 2876 2872 2869 2866 2864 2861 2859 2857 2855 2853 2851 2850 2850 2849 2847 2846 2844 2843 2842 2841 2839 2838 2837 2837 2836
3115 3112 3110 3106 3104 3102 3098 3096 3094 3091 3088 3085 3083 3082 3082 3082 3081 3080 3076 3069 3069 3065 3057 3053 3033 3007 3012 3023 3015 3010 3006 2999 2995 2989 2983 2979 2973 2968 2964 2959 2954 2949 2944 2940 2935 2931 2926 2922 2918 2913 2909 2905 2901 2897 2894 2890 2885 2882 2879 2876 2874 2871 2867 2864 2861 2859 2856 2853 2851 2848 2846 2844 2843 2843 2842 2842 2840 2839 2838 2837 2836 2835 2834 2833 2832 2832
3115 3113 3110 3106 3103 3101 3097 3094 3092 3090 3088 3086 3083 3081 3081 3081 3080 3079 3076 3068 3065 3061 3054 3050 3029 3002 3007 3018 3011 3006 3003 2996 2991 2986 2980 2974 2968 2964 2959 2954 2950 2944 2940 2936 2932 2928 2923 2918 2914 2909 2904 2899 2894 2891 2887 2883 2879 2876 2873 2871 2868 2865 2862 2858 2855 2852 2849 2847 2844 2841 2839 2837 2835 2835 2835 2835 2834 2833 2832 2831 2830 2829 2829 2828 2827 2827
3116 3114 3112 3108 3102 3098 3095 3093 3092 3090 3089 3088 3086 3081 3078 3078 3078 3075 3071 3066 3062 3057 3054 3049 3025 3000 3003 3011 3007 3002 2998 2992 2988 2984 2978 2971 2964 2959 2955 2949 2945 2940 2935 2932 2927 2923 2919 2914 2910 2905 2899 2894 2889 2885 2881 2877 2874 2870 2867 2865 2862 2859 2855 2852 2848 2845 2842 2839 2837 2835 2833 2831 2829 2828 2827 2826 2826 2826 2826 2825 2824 2823 2823 2823 2823 2823
3117 3115 3114 3112 3109 3105 3100 3097 3095 3092 3089 3087 3085 3082 3076 3074 3074 3071 3066 3062 3056 3051 3049 3045 3026 3003 3000 3006 3003 2998 2993 2987 2983 2979 2975 2969 2962 2956 2951 2945 2940 2936 2931 2927 2922 2918 2914 2910 2905 2899 2894 2889 2885 2881 2876 2871 2868 2864 2860 2858 2855 2852 2849 2846 2842 2839 2835 2833 2830 2828 2826 2825 2824 2822 2820 2819 2818 2818 2818 2819 2818 2818 2818 2818 2817 2817
3116 3115 3114 3114 3113 3110 3105 3101 3097 3093 3089 3085 3083 3080 3075 3071 3070 3069 3065 3059 3053 3044 3036 3034 3027 3008 2997 3000 2999 2993 2988 2983 2978 2974 2968 2963 2957 2953 2947 2941 2936 2931 2927 2923 2918 2914 2909 2904 2899 2894 2889 2884 2880 2876 2871 2867 2863 2859 2854 2851 2847 2844 2841 2839 2836 2832 2829 2827 2824 2821 2818 2817 2816 2815 2814 2813 2812 2811 2811 2812 2812 2812 2812 2812 2812 2812
3115 3114 3113 3112 3110 3108 3103 3099 3095 3092 3088 3084 3080 3078 3075 3071 3067 3065 3062 3058 3054 3045 3028 3020 3021 3010 2995 2995 2996 2991 2986 2980 2974 2970 2964 2958 2953 2948 2943 2937 2932 2926 2922 2918 2914 2910 2904 2898 2893 2888 2884 2879 2874 2870 2866 2862 2858 2854 2849 2844 2841 2837 2833 2830 2827 2825 2822 2819 2817 2814 2812 2809 2808 2807 2806 2806 2805 2805 2805 2805 2805 2805 2806 2806 2806 2806
3114 3113 3111 3108 3106 3104 3100 3096 3093 3089 3086 3082 3079 3076 3074 3070 3066 3062 3060 3057 3056 3050 3033 3020 3018 3010 2999 2995 2993 2990 2985 2979 2973 2967 2962 2955 2949 2943 2937 2932 2926 2921 2917 2912 2908 2905 2899 2893 2888 2883 2878 2873 2868 2863 2859 2855 2851 2847 2843 2839 2834 2831 2826 2822 2818 2816 2814 2812 2810 2807 2805 2803 2802 2800 2799 2798 2798 2798 2798 2798 2798 2798 2799 2800 2800 2800
3113 3111 3108 3105 3102 3099 3096 3093 3090 3085 3082 3079 3076 3074 3071 3068 3065 3061 3057 3054 3052 3047 3038 3028 3019 3010 3004 2998 2992 2988 2985 2979 2973 2965 2957 2950 2943 2938 2932 2926 2921 2916 2912 2908 2903 2898 2893 2887 2882 2878 2873 2867 2863 2858 2852 2848 2844 2840 2837 2833 2828 2824 2820 2816 2812 2809 2807 2805 2803 2801 2799 2797 2795 2794 2792 2791 2791 2790 2790 2791 2791 2791 2791 2792 2793 2794
3112 3110 3106 3102 3098 3095 3093 3090 3086 3082 3079 3076 3073 3071 3069 3065 3063 3060 3055 3050 3044 3035 3029 3025 3015 3005 3002 2998 2992 2987 2982 2975 2969 2961 2953 2945 2937 2932 2927 2921 2916 2912 2907 2903 2898 2892 2887 2881 2877 2872 2867 2861 2856 2851 2846 2841 2836 2832 2828 2825 2822 2817 2813 2810 2806 2803 2801 2799 2797 2795 2793 2791 2789 2787 2785 2784 2783 2783 2783 2783 2783 2783 2784 2785 2786 2787
3111 3108 3104 3099 3095 3093 3091 3086 3081 3077 3075 3073 3071 3069 3067 3063 3059 3057 3054 3050 3043 3033 3023 3016 3009 3000 2995 2990 2985 2981 2978 2972 2965 2959 2952 2944 2934 2927 2922 2916 2911 2907 2902 2897 2891 2885 2881 2876 2871 2865 2860 2855 2850 2845 2839 2834 2829 2824 2820 2817 2814 2810 2807 2804 2800 2797 2795 2794 2792 2789 2787 2785 2783 2781 2779 2778 2777 2776 2776 2776 2776 2777 2778 2779 2780 2782
3109 3106 3102 3099 3094 3090 3087 3083 3078 3074 3073 3072 3070 3068 3065 3062 3056 3052 3050 3047 3043 3036 3025 3016 3009 3002 2994 2986 2977 2973 2971 2968 2962 2955 2950 2943 2933 2925 2920 2914 2908 2901 2895 2890 2884 2879 2875 2871 2865 2859 2853 2849 2844 2839 2834 2828 2822 2816 2811 2809 2806 2802 2800 2797 2794 2791 2789 2788 2787 2784 2782 2779 2777 2775 2773 2772 2771 2771 2771 2771 2771 2772 2773 2774 2776 2777
3108 3105 3101 3098 3093 3087 3083 3080 3075 3073 3073 3071 3069 3067 3063 3060 3055 3047 3043 3040 3036 3033 3027 3020 3012 3004 2996 2987 2977 2968 2964 2963 2959 2953 2946 2940 2933 2924 2917 2911 2905 2897 2890 2883 2878 2873 2868 2863 2858 2852 2848 2843 2838 2833 2827 2821 2815 2809 2804 2802 2799 2795 2792 2790 2788 2785 2783 2782 2781 2779 2777 2774 2772 2770 2768 2767 2767 2766 2766 2767 2767 2768 2770 2771 2772 2774
3106 3103 3099 3096 3093 3087 3082 3078 3073 3072 3073 3070 3067 3065 3062 3059 3054 3046 3039 3037 3034 3028 3023 3018 3011 3003 2994 2986 2977 2968 2960 2956 2954 2949 2942 2937 2933 2925 2914 2905 2899 2892 2885 2878 2872 2867 2862 2856 2851 2846 2841 2836 2831 2825 2819 2813 2807 2801 2797 2795 2792 2789 2786 2783 2781 2780 2778 2776 2776 2774 2771 2769 2767 2765 2764 2763 2763 2763 2763 2764 2765 2766 2768 2769 2770 2772
3104 3101 3097 3094 3092 3087 3082 3080 3077 3072 3070 3067 3064 3062 3058 3054 3049 3041 3032 3030 3031 3026 3020 3014 3007 3000 2992 2983 2974 2965 2956 2949 2945 2942 2939 2934 2929 2922 2912 2901 2893 2887 2881 2875 2868 2861 2856 2850 2845 2839 2834 2828 2822 2815 2810 2805 2799 2793 2790 2788 2785 2782 2780 2777 2775 2774 2773 2771 2770 2769 2767 2764 2762 2762 2761 2760 2760 2760 2761 2762 2763 2765 2766 2767 2768 2769
3103 3100 3097 3093 3090 3087 3083 3081 3076 3070 3067 3065 3062 3060 3055 3049 3046 3040 3028 3023 3026 3025 3018 3009 3001 2994 2988 2980 2971 2962 2951 2940 2932 2930 2932 2929 2922 2915 2908 2900 2891 2883 2876 2870 2863 2856 2850 2844 2838 2832 2826 2820 2814 2807 2801 2796 2791 2786 2783 2781 2778 2776 2774 2772 2770 2769 2768 2767 2766 2764 2763 2761 2759 2759 2758 2757 2758 2759 2760 2761 2762 2763 2765 2765 2766 2767
3101 3098 3095 3092 3089 3087 3084 3079 3073 3068 3066 3064 3060 3057 3055 3049 3044 3040 3028 3021 3022 3021 3013 3005 2997 2990 2984 2976 2967 2959 2948 2934 2922 2917 2919 2918 2912 2905 2898 2892 2887 2879 2871 2864 2856 2848 2842 2836 2830 2824 2817 2810 2805 2800 2794 2789 2784 2780 2777 2775 2772 2770 2768 2766 2765 2764 2763 2762 2761 2761 2759 2758 2757 2756 2756 2756 2757 2758 2760 2761 2761 2762 2763 2763 2764 2764
3098 3095 3093 3091 3088 3086 3084 3079 3075 3069 3064 3061 3058 3054 3050 3044 3039 3034 3026 3019 3017 3015 3008 3001 2995 2988 2981 2973 2964 2957 2949 2937 2923 2913 2909 2906 2901 2896 2889 2881 2876 2870 2865 2859 2852 2844 2836 2827 2819 2813 2808 2801 2795 2790 2786 2781 2776 2773 2770 2768 2766 2763 2761 2760 2760 2759 2759 2758 2758 2757 2757 2756 2756 2755 2755 2755 2756 2758 2759 2760 2760 2760 2761 2761 2762 2762
3095 3092 3090 3089 3088 3086 3083 3079 3076 3070 3064 3060 3056 3051 3045 3039 3033 3029 3022 3014 3011 3009 3005 2999 2993 2987 2979 2972 2964 2957 2951 2943 2930 2916 2908 2902 2896 2891 2886 2878 2870 2863 2856 2851 2845 2838 2829 2819 2809 2802 2798 2792 2787 2782 2778 2773 2769 2766 2763 2760 2758 2756 2755 2755 2755 2755 2755 2755 2755 2755 2755 2754 2754 2754 2754 2755 2756 2758 2758 2759 2759 2759 2759 2760 2760 2760
3094 3092 3090 3088 3086 3084 3082 3078 3073 3068 3063 3059 3054 3048 3041 3034 3029 3027 3022 3014 3008 3005 3001 2996 2990 2983 2977 2971 2964 2957 2952 2946 2935 2922 2912 2903 2894 2886 2881 2874 2867 2859 2852 2845 2837 2829 2821 2813 2804 2796 2791 2786 2780 2774 2770 2765 2762 2758 2756 2753 2751 2750 2750 2750 2751 2751 2751 2752 2752 2753 2753 2753 2753 2753 2754 2755 2756 2757 2757 2757 2758 2758 2758 2758 2758 2758
3094 3091 3089 3087 3085 3082 3081 3077 3071 3066 3062 3058 3052 3046 3040 3033 3028 3027 3023 3016 3010 3003 2998 2992 2986 2980 2974 2969 2963 2956 2947 2941 2932 2922 2912 2903 2894 2884 2876 2868 2860 2854 2847 2839 2830 2821 2812 2805 2798 2791 2785 2779 2773 2767 2763 2759 2755 2752 2750 2747 2745 2744 2745 2746 2746 2747 2748 2749 2750 2751 2751 2751 2752 2753 2753 2754 2755 2755 2756 2756 2756 2756 2756 2756 2756 2755
3094 3091 3089 3086 3084 3081 3078 3076 3071 3065 3060 3055 3048 3042 3039 3036 3032 3026 3020 3014 3008 3002 2995 2989 2983 2977 2972 2965 2958 2951 2942 2933 2926 2918 2909 2901 2893 2883 2873 2865 2856 2848 2840 2832 2823 2815 2807 2798 2792 2785 2779 2774 2768 2763 2758 2754 2750 2747 2745 2742 2740 2740 2741 2742 2743 2744 2746 2747 2748 2749 2749 2750 2751 2752 2753 2753 2754 2754 2754 2754 2754 2755 2755 2754 2754 2753
3094 3092 3089 3086 3083 3080 3077 3075 3071 3064 3058 3053 3048 3043 3039 3036 3031 3024 3017 3011 3005 2999 2993 2986 2980 2975 2969 2960 2952 2945 2936 2928 2920 2912 2904 2896 2888 2879 2870 2862 2853 2844 2835 2827 2818 2810 2802 2794 2786 2780 2774 2769 2765 2760 2756 2751 2746 2744 2741 2739 2738 2738 2738 2739 2740 2742 2743 2745 2746 2747 2748 2749 2750 2751 2752 2752 2753 2753 2753 2753 2753 2753 2753 2752 2751 2750
3093 3092 3089 3086 3082 3079 3075 3070 3066 3061 3056 3052 3048 3043 3037 3032 3027 3021 3015 3009 3002 2997 2991 2984 2977 2971 2965 2958 2949 2941 2933 2925 2916 2908 2901 2893 2885 2876 2867 2860 2851 2841 2832 2823 2815 2807 2798 2790 2782 2776 2771 2766 2762 2757 2753 2749 2744 2741 2739 2737 2736 2736 2737 2737 2739 2740 2742 2744 2745 2746 2747 2748 2749 2750 2751 2752 2752 2752 2752 2752 2752 2752 2751 2750 2749 2748
3093 3091 3088 3084 3080 3076 3072 3068 3064 3059 3054 3049 3045 3039 3034 3028 3023 3018 3012 3006 3000 2995 2989 2982 2975 2968 2961 2955 2947 2938 2931 2922 2913 2905 2898 2890 2881 2873 2864 2856 2848 2839 2828 2820 2812 2804 2795 2787 2780 2774 2768 2764 2760 2755 2751 2747 2743 2740 2738 2737 2736 2736 2736 2737 2738 2740 2741 2743 2744 2746 2747 2747 2748 2749 2750 2751 2751 2751 2751 2751 2751 2750 2749 2748 2747 2746
3093 3090 3086 3083 3079 3074 3069 3066 3062 3056 3051 3046 3041 3035 3031 3026 3020 3015 3009 3003 2997 2991 2986 2980 2973 2966 2959 2952 2945 2936 2928 2920 2911 2902 2894 2886 2878 2870 2862 2853 2844 2836 2827 2818 2810 2802 2794 2786 2778 2772 2767 2762 2758 2754 2750 2746 2743 2740 2738 2737 2736 2736 2736 2737 2738 2740 2741 2743 2744 2745 2746 2747 2748 2749 2750 2750 2751 2751 2751 2750 2749 2748 2748 2747 2745 2744
3092 3088 3085 3081 3078 3073 3068 3063 3058 3054 3050 3046 3039 3033 3028 3022 3016 3011 3006 3000 2994 2988 2982 2977 2971 2964 2956 2949 2942 2934 2925 2919 2910 2900 2891 2883 2876 2868 2860 2851 2841 2833 2824 2817 2809 2801 2792 2785 2778 2771 2766 2761 2757 2753 2750 2746 2743 2741 2739 2738 2737 2737 2737 2738 2739 2740 2741 2742 2744 2745 2746 2747 2748 2749 2749 2750 2750 2750 2750 2749 2748 2748 2747 2745 2743 2741
3090 3087 3083 3079 3075 3071 3066 3061 3055 3049 3045 3042 3038 3031 3025 3019 3012 3007 3002 2996 2990 2984 2978 2973 2967 2962 2954 2946 2939 2931 2922 2915 2908 2899 2890 2882 2874 2865 2857 2849 2841 2832 2823 2814 2807 2800 2792 2784 2778 2772 2766 2762 2757 2753 2750 2747 2744 2742 2740 2739 2739 2739 2738 2739 2740 2740 2742 2743 2744 2745 2746 2746 2747 2748 2749 2749 2749 2749 2748 2747 2747 2747 2746 2745 2743 2740
3089 3085 3081 3076 3071 3066 3063 3059 3052 3044 3038 3035 3032 3027 3021 3015 3009 3002 2997 2991 2986 2981 2974 2968 2962 2957 2951 2945 2937 2929 2919 2911 2904 2897 2888 2880 2872 2864 2855 2846 2838 2830 2822 2813 2805 2799 2791 2784 2778 2772 2767 2762 2758 2754 2751 2748 2745 2743 2742 2741 2740 2740 2739 2740 2740 2741 2742 2743 2744 2745 2746 2747 2747 2748 2748 2749 2749 2748 2748 2747 2746 2746 2745 2744 2742 2740
3088 3084 3080 3075 3070 3065 3061 3058 3052 3045 3037 3032 3028 3023 3017 3012 3005 2998 2993 2988 2983 2977 2971 2964 2957 2950 2945 2940 2934 2927 2917 2907 2900 2893 2884 2877 2870 2863 2854 2845 2836 2827 2819 2810 2802 2796 2790 2784 2778 2772 2767 2762 2758 2755 2752 2749 2747 2745 2743 2742 2741 2741 2740 2741 2741 2742 2743 2744 2745 2746 2746 2747 2747 2748 2748 2748 2748 2747 2748 2747 2747 2746 2745 2744 2742 2740